Time,TemperatureF,DewpointF,PressureIn,WindDirection,WindDirectionDegrees,WindSpeedMPH,WindSpeedGustMPH,Humidity,HourlyPrecipIn,Conditions,Clouds,dailyrainin,SoftwareType,DateUTC
2013-02-03 00:00:00,46.5,40.3,30.06,WSW,257,6.0,6.0,79,0.00,,,0.00,Wunderground v.1.15,2013-02-03 05:00:00,
2013-02-03 00:10:00,46.4,40.2,30.06,West,270,5.0,7.0,79,0.00,,,0.00,Wunderground v.1.15,2013-02-03 05:10:00,
2013-02-03 00:20:00,46.4,39.9,30.05,West,259,4.0,6.0,78,0.00,,,0.00,Wunderground v.1.15,2013-02-03 05:20:00,
2013-02-03 00:25:00,46.4,39.9,30.05,West,262,5.0,6.0,78,0.00,,,0.00,Wunderground v.1.15,2013-02-03 05:25:00,
2013-02-03 00:30:00,46.5,40.0,30.05,West,276,5.0,5.0,78,0.00,,,0.00,Wunderground v.1.15,2013-02-03 05:30:00,
2013-02-03 00:40:00,46.7,40.2,30.04,West,259,1.0,1.0,78,0.00,,,0.00,Wunderground v.1.15,2013-02-03 05:40:00,
2013-02-03 00:50:00,46.8,39.6,30.04,West,267,1.0,4.0,76,0.00,,,0.00,Wunderground v.1.15,2013-02-03 05:50:00,
2013-02-03 01:00:00,46.9,39.4,30.04,West,281,2.0,5.0,75,0.00,,,0.00,Wunderground v.1.15,2013-02-03 06:00:00,
2013-02-03 01:10:00,47.0,39.1,30.04,West,271,4.0,4.0,74,0.00,,,0.00,Wunderground v.1.15,2013-02-03 06:10:00,
2013-02-03 01:20:00,46.9,39.0,30.04,WNW,284,5.0,6.0,74,0.00,,,0.00,Wunderground v.1.15,2013-02-03 06:20:00,
2013-02-03 01:30:00,46.7,38.9,30.03,West,261,4.0,5.0,74,0.00,,,0.00,Wunderground v.1.15,2013-02-03 06:30:00,
2013-02-03 01:40:00,46.5,38.7,30.03,WNW,292,5.0,5.0,74,0.00,,,0.00,Wunderground v.1.15,2013-02-03 06:40:00,
2013-02-03 01:50:00,46.2,38.4,30.02,WNW,286,3.0,3.0,74,0.00,,,0.00,Wunderground v.1.15,2013-02-03 06:50:00,
2013-02-03 01:55:00,46.1,38.3,30.02,West,275,2.0,3.0,74,0.00,,,0.00,Wunderground v.1.15,2013-02-03 06:55:00,
2013-02-03 02:05:00,45.7,37.9,30.02,WNW,296,2.0,2.0,74,0.00,,,0.00,Wunderground v.1.15,2013-02-03 07:05:00,
2013-02-03 02:10:00,45.6,37.8,30.01,WNW,287,1.0,1.0,74,0.00,,,0.00,Wunderground v.1.15,2013-02-03 07:10:00,
2013-02-03 02:20:00,45.3,37.8,30.01,WSW,258,1.0,1.0,75,0.00,,,0.00,Wunderground v.1.15,2013-02-03 07:20:00,
2013-02-03 02:30:00,45.1,37.6,30.00,West,281,0.0,0.0,75,0.00,,,0.00,Wunderground v.1.15,2013-02-03 07:30:00,
2013-02-03 02:35:00,44.9,37.5,30.00,West,259,0.0,0.0,75,0.00,,,0.00,Wunderground v.1.15,2013-02-03 07:35:00,
2013-02-03 02:45:00,44.6,37.5,30.00,West,280,0.0,0.0,76,0.00,,,0.00,Wunderground v.1.15,2013-02-03 07:45:00,
2013-02-03 02:50:00,44.4,37.6,29.99,West,272,0.0,0.0,77,0.00,,,0.00,Wunderground v.1.15,2013-02-03 07:50:00,
2013-02-03 03:00:00,44.1,37.7,30.00,WSW,256,0.0,0.0,78,0.00,,,0.00,Wunderground v.1.15,2013-02-03 08:00:00,
2013-02-03 03:05:00,43.9,37.5,30.00,WSW,254,0.0,0.0,78,0.00,,,0.00,Wunderground v.1.15,2013-02-03 08:05:00,
2013-02-03 03:15:00,43.6,37.5,29.99,West,269,0.0,0.0,79,0.00,,,0.00,Wunderground v.1.15,2013-02-03 08:15:00,
2013-02-03 03:25:00,43.6,37.2,29.99,West,269,0.0,0.0,78,0.00,,,0.00,Wunderground v.1.15,2013-02-03 08:25:00,
2013-02-03 03:35:00,43.7,37.3,29.99,West,261,3.0,4.0,78,0.00,,,0.00,Wunderground v.1.15,2013-02-03 08:35:00,
2013-02-03 03:45:00,43.7,37.0,29.98,West,281,3.0,5.0,77,0.00,,,0.00,Wunderground v.1.15,2013-02-03 08:45:00,
2013-02-03 03:55:00,43.6,36.9,29.98,WSW,255,4.0,5.0,77,0.00,,,0.00,Wunderground v.1.15,2013-02-03 08:55:00,
2013-02-03 04:00:00,43.5,36.8,29.98,WNW,286,3.0,3.0,77,0.00,,,0.00,Wunderground v.1.15,2013-02-03 09:00:00,
2013-02-03 04:10:00,43.2,36.8,29.98,West,265,1.0,2.0,78,0.00,,,0.00,Wunderground v.1.15,2013-02-03 09:10:00,
2013-02-03 04:20:00,43.0,36.6,29.97,West,261,1.0,1.0,78,0.00,,,0.00,Wunderground v.1.15,2013-02-03 09:20:00,
2013-02-03 04:30:00,42.8,36.7,29.97,West,261,0.0,0.0,79,0.00,,,0.00,Wunderground v.1.15,2013-02-03 09:30:00,
2013-02-03 04:40:00,42.5,36.4,29.97,WSW,253,0.0,0.0,79,0.00,,,0.00,Wunderground v.1.15,2013-02-03 09:40:00,
2013-02-03 04:45:00,42.3,36.6,29.97,WSW,240,0.0,0.0,80,0.00,,,0.00,Wunderground v.1.15,2013-02-03 09:45:00,
2013-02-03 04:55:00,42.1,36.4,29.97,West,271,0.0,1.0,80,0.00,,,0.00,Wunderground v.1.15,2013-02-03 09:55:00,
2013-02-03 05:05:00,42.3,35.9,29.97,West,271,2.0,3.0,78,0.00,,,0.00,Wunderground v.1.15,2013-02-03 10:05:00,
2013-02-03 05:10:00,42.3,35.9,29.97,West,275,2.0,7.0,78,0.00,,,0.00,Wunderground v.1.15,2013-02-03 10:10:00,
2013-02-03 05:20:00,42.4,36.0,29.98,West,259,5.0,5.0,78,0.00,,,0.00,Wunderground v.1.15,2013-02-03 10:20:00,
2013-02-03 05:30:00,42.3,35.9,29.97,West,271,4.0,4.0,78,0.00,,,0.00,Wunderground v.1.15,2013-02-03 10:30:00,
2013-02-03 05:35:00,42.2,35.8,29.97,WNW,296,4.0,6.0,78,0.00,,,0.00,Wunderground v.1.15,2013-02-03 10:35:00,
2013-02-03 05:45:00,42.1,35.7,29.97,WSW,257,2.0,6.0,78,0.00,,,0.00,Wunderground v.1.15,2013-02-03 10:45:00,
2013-02-03 05:55:00,42.0,35.6,29.98,WSW,239,4.0,5.0,78,0.00,,,0.00,Wunderground v.1.15,2013-02-03 10:55:00,
2013-02-03 06:05:00,41.9,35.5,29.97,West,259,4.0,5.0,78,0.00,,,0.00,Wunderground v.1.15,2013-02-03 11:05:00,
2013-02-03 06:15:00,41.8,35.4,29.97,West,263,4.0,5.0,78,0.00,,,0.00,Wunderground v.1.15,2013-02-03 11:15:00,
2013-02-03 06:20:00,41.7,35.3,29.97,WSW,258,2.0,2.0,78,0.00,,,0.00,Wunderground v.1.15,2013-02-03 11:20:00,
2013-02-03 06:25:00,41.7,35.3,29.97,West,259,0.0,5.0,78,0.00,,,0.00,Wunderground v.1.15,2013-02-03 11:25:00,
2013-02-03 06:35:00,41.6,35.6,29.97,West,271,1.0,1.0,79,0.00,,,0.00,Wunderground v.1.15,2013-02-03 11:35:00,
2013-02-03 06:40:00,41.6,35.6,29.97,WNW,302,0.0,2.0,79,0.00,,,0.00,Wunderground v.1.15,2013-02-03 11:40:00,
2013-02-03 06:45:00,41.6,35.6,29.97,West,270,0.0,2.0,79,0.00,,,0.00,Wunderground v.1.15,2013-02-03 11:45:00,
2013-02-03 06:55:00,41.5,35.5,29.97,West,261,0.0,3.0,79,0.00,,,0.00,Wunderground v.1.15,2013-02-03 11:55:00,
2013-02-03 07:04:00,41.4,35.7,29.98,WSW,253,4.0,4.0,80,0.00,,,0.00,Wunderground v.1.15,2013-02-03 12:04:00,
2013-02-03 07:10:00,41.3,35.6,29.99,West,276,4.0,6.0,80,0.00,,,0.00,Wunderground v.1.15,2013-02-03 12:10:00,
2013-02-03 07:20:00,41.5,35.8,29.99,WNW,290,6.0,6.0,80,0.00,,,0.00,Wunderground v.1.15,2013-02-03 12:20:00,
2013-02-03 07:30:00,41.9,36.2,30.00,West,261,5.0,6.0,80,0.00,,,0.00,Wunderground v.1.15,2013-02-03 12:30:00,
2013-02-03 07:40:00,42.2,36.2,30.00,WSW,248,6.0,6.0,79,0.00,,,0.00,Wunderground v.1.15,2013-02-03 12:40:00,
2013-02-03 07:50:00,42.5,36.4,30.00,West,262,7.0,7.0,79,0.00,,,0.00,Wunderground v.1.15,2013-02-03 12:50:00,
2013-02-03 08:00:00,42.6,36.5,30.01,West,281,5.0,6.0,79,0.00,,,0.00,Wunderground v.1.15,2013-02-03 13:00:00,
2013-02-03 08:10:00,42.7,36.6,30.01,WNW,288,8.0,8.0,79,0.00,,,0.00,Wunderground v.1.15,2013-02-03 13:10:00,
2013-02-03 08:20:00,42.9,36.5,30.01,WNW,290,8.0,8.0,78,0.00,,,0.00,Wunderground v.1.15,2013-02-03 13:20:00,
2013-02-03 08:30:00,43.3,36.9,30.01,WNW,294,7.0,11.0,78,0.00,,,0.00,Wunderground v.1.15,2013-02-03 13:30:00,
2013-02-03 08:40:00,43.6,36.9,30.01,West,277,8.0,13.0,77,0.00,,,0.00,Wunderground v.1.15,2013-02-03 13:40:00,
2013-02-03 08:45:00,43.7,37.0,30.01,NW,311,8.0,13.0,77,0.00,,,0.00,Wunderground v.1.15,2013-02-03 13:45:00,
2013-02-03 08:50:00,44.0,36.9,30.01,West,277,7.0,10.0,76,0.00,,,0.00,Wunderground v.1.15,2013-02-03 13:50:00,
2013-02-03 09:00:00,44.4,37.0,30.01,NNW,329,9.0,9.0,75,0.00,,,0.00,Wunderground v.1.15,2013-02-03 14:00:00,
2013-02-03 09:10:00,44.9,37.1,30.01,WNW,293,8.0,8.0,74,0.00,,,0.00,Wunderground v.1.15,2013-02-03 14:10:00,
2013-02-03 09:20:00,45.2,36.7,30.01,WNW,303,9.0,15.0,72,0.00,,,0.00,Wunderground v.1.15,2013-02-03 14:20:00,
2013-02-03 09:30:00,45.7,36.5,30.01,NW,317,8.0,8.0,70,0.00,,,0.00,Wunderground v.1.15,2013-02-03 14:30:00,
2013-02-03 09:40:00,46.1,36.1,30.01,West,277,7.0,7.0,68,0.00,,,0.00,Wunderground v.1.15,2013-02-03 14:40:00,
2013-02-03 09:50:00,46.8,36.0,30.01,WNW,294,7.0,7.0,66,0.00,,,0.00,Wunderground v.1.15,2013-02-03 14:50:00,
2013-02-03 09:55:00,46.9,35.7,30.01,WNW,292,8.0,8.0,65,0.00,,,0.00,Wunderground v.1.15,2013-02-03 14:55:00,
2013-02-03 10:05:00,47.5,35.5,30.01,WNW,296,8.0,9.0,63,0.00,,,0.00,Wunderground v.1.15,2013-02-03 15:05:00,
2013-02-03 10:15:00,47.7,34.9,30.00,NW,306,9.0,13.0,61,0.00,,,0.00,Wunderground v.1.15,2013-02-03 15:15:00,
2013-02-03 10:25:00,48.7,35.4,30.01,WNW,290,8.0,10.0,60,0.00,,,0.00,Wunderground v.1.15,2013-02-03 15:25:00,
2013-02-03 10:35:00,49.0,33.5,30.00,WNW,288,8.0,11.0,55,0.00,,,0.00,Wunderground v.1.15,2013-02-03 15:35:00,
2013-02-03 10:45:00,49.6,33.6,30.00,WNW,294,8.0,8.0,54,0.00,,,0.00,Wunderground v.1.15,2013-02-03 15:45:00,
2013-02-03 10:55:00,49.4,33.4,30.01,WNW,286,11.0,11.0,54,0.00,,,0.00,Wunderground v.1.15,2013-02-03 15:55:00,
2013-02-03 11:00:00,49.6,33.2,30.01,WNW,295,10.0,10.0,53,0.00,,,0.00,Wunderground v.1.15,2013-02-03 16:00:00,
2013-02-03 11:10:00,50.1,33.1,30.00,West,264,9.0,10.0,52,0.00,,,0.00,Wunderground v.1.15,2013-02-03 16:10:00,
2013-02-03 11:20:00,50.6,32.6,29.99,WNW,283,8.0,8.0,50,0.00,,,0.00,Wunderground v.1.15,2013-02-03 16:20:00,
2013-02-03 11:29:00,51.4,32.3,29.99,WNW,296,8.0,11.0,48,0.00,,,0.00,Wunderground v.1.15,2013-02-03 16:29:00,
2013-02-03 11:35:00,51.6,31.5,29.98,North,9,8.0,13.0,46,0.00,,,0.00,Wunderground v.1.15,2013-02-03 16:35:00,
2013-02-03 11:40:00,51.7,32.1,29.98,NW,311,9.0,9.0,47,0.00,,,0.00,Wunderground v.1.15,2013-02-03 16:40:00,
2013-02-03 11:50:00,51.7,31.0,29.98,North,355,9.0,9.0,45,0.00,,,0.00,Wunderground v.1.15,2013-02-03 16:50:00,
2013-02-03 12:00:00,52.3,30.4,29.97,West,275,9.0,9.0,43,0.00,,,0.00,Wunderground v.1.15,2013-02-03 17:00:00,
2013-02-03 12:10:00,52.2,30.9,29.96,West,270,8.0,8.0,44,0.00,,,0.00,Wunderground v.1.15,2013-02-03 17:10:00,
2013-02-03 12:20:00,52.6,30.1,29.96,NW,320,7.0,9.0,42,0.00,,,0.00,Wunderground v.1.15,2013-02-03 17:20:00,
2013-02-03 12:25:00,52.9,31.6,29.95,North,355,8.0,9.0,44,0.00,,,0.00,Wunderground v.1.15,2013-02-03 17:25:00,
2013-02-03 12:35:00,53.5,31.0,29.95,West,265,9.0,10.0,42,0.00,,,0.00,Wunderground v.1.15,2013-02-03 17:35:00,
2013-02-03 12:45:00,53.8,31.2,29.94,West,271,7.0,9.0,42,0.00,,,0.00,Wunderground v.1.15,2013-02-03 17:45:00,
2013-02-03 12:55:00,54.3,31.1,29.93,WNW,294,8.0,10.0,41,0.00,,,0.00,Wunderground v.1.15,2013-02-03 17:55:00,
2013-02-03 13:00:00,54.2,31.0,29.93,West,274,9.0,9.0,41,0.00,,,0.00,Wunderground v.1.15,2013-02-03 18:00:00,
2013-02-03 13:10:00,54.6,31.9,29.92,West,270,9.0,9.0,42,0.00,,,0.00,Wunderground v.1.15,2013-02-03 18:10:00,
2013-02-03 13:20:00,54.4,31.8,29.91,West,271,10.0,10.0,42,0.00,,,0.00,Wunderground v.1.15,2013-02-03 18:20:00,
2013-02-03 13:30:00,55.0,31.1,29.91,NW,314,9.0,13.0,40,0.00,,,0.00,Wunderground v.1.15,2013-02-03 18:30:00,
2013-02-03 13:35:00,55.0,31.7,29.90,WNW,302,11.0,13.0,41,0.00,,,0.00,Wunderground v.1.15,2013-02-03 18:35:00,
2013-02-03 13:45:00,55.8,31.8,29.89,West,280,9.0,10.0,40,0.00,,,0.00,Wunderground v.1.15,2013-02-03 18:45:00,
2013-02-03 13:55:00,55.8,31.8,29.89,WNW,292,10.0,13.0,40,0.00,,,0.00,Wunderground v.1.15,2013-02-03 18:55:00,
2013-02-03 14:00:00,56.1,32.1,29.88,WNW,288,11.0,11.0,40,0.00,,,0.00,Wunderground v.1.15,2013-02-03 19:00:00,
2013-02-03 14:10:00,56.6,31.9,29.88,WNW,300,10.0,18.0,39,0.00,,,0.00,Wunderground v.1.15,2013-02-03 19:10:00,
2013-02-03 14:15:00,56.5,32.4,29.89,West,275,12.0,18.0,40,0.00,,,0.00,Wunderground v.1.15,2013-02-03 19:15:00,
2013-02-03 14:25:00,56.4,32.4,29.88,WNW,288,11.0,13.0,40,0.00,,,0.00,Wunderground v.1.15,2013-02-03 19:25:00,
2013-02-03 14:35:00,56.9,32.2,29.88,West,269,11.0,13.0,39,0.00,,,0.00,Wunderground v.1.15,2013-02-03 19:35:00,
2013-02-03 14:40:00,56.8,32.7,29.88,WNW,296,12.0,12.0,40,0.00,,,0.00,Wunderground v.1.15,2013-02-03 19:40:00,
2013-02-03 14:50:00,56.4,32.4,29.88,West,274,11.0,11.0,40,0.00,,,0.00,Wunderground v.1.15,2013-02-03 19:50:00,
2013-02-03 14:55:00,56.2,33.4,29.88,West,274,13.0,16.0,42,0.00,,,0.00,Wunderground v.1.15,2013-02-03 19:55:00,
2013-02-03 15:05:00,56.6,33.8,29.88,West,271,10.0,15.0,42,0.00,,,0.00,Wunderground v.1.15,2013-02-03 20:05:00,
2013-02-03 15:15:00,57.2,34.3,29.88,West,260,9.0,10.0,42,0.00,,,0.00,Wunderground v.1.15,2013-02-03 20:15:00,
2013-02-03 15:20:00,57.3,33.8,29.88,West,272,8.0,10.0,41,0.00,,,0.00,Wunderground v.1.15,2013-02-03 20:20:00,
2013-02-03 15:30:00,57.3,33.2,29.88,West,269,9.0,9.0,40,0.00,,,0.00,Wunderground v.1.15,2013-02-03 20:30:00,
2013-02-03 15:40:00,57.7,33.5,29.88,NW,321,7.0,7.0,40,0.00,,,0.00,Wunderground v.1.15,2013-02-03 20:40:00,
2013-02-03 15:45:00,58.4,32.9,29.88,West,279,6.0,11.0,38,0.00,,,0.00,Wunderground v.1.15,2013-02-03 20:45:00,
2013-02-03 15:50:00,58.2,33.3,29.88,NW,310,7.0,9.0,39,0.00,,,0.00,Wunderground v.1.15,2013-02-03 20:50:00,
2013-02-03 16:00:00,58.3,33.4,29.87,WNW,284,5.0,6.0,39,0.00,,,0.00,Wunderground v.1.15,2013-02-03 21:00:00,
2013-02-03 16:10:00,58.7,33.8,29.88,NW,316,7.0,8.0,39,0.00,,,0.00,Wunderground v.1.15,2013-02-03 21:10:00,
2013-02-03 16:20:00,58.6,33.7,29.87,WNW,300,6.0,6.0,39,0.00,,,0.00,Wunderground v.1.15,2013-02-03 21:20:00,
2013-02-03 16:29:00,58.6,33.0,29.88,WNW,302,4.0,8.0,38,0.00,,,0.00,Wunderground v.1.15,2013-02-03 21:29:00,
2013-02-03 16:35:00,58.6,33.0,29.88,West,277,4.0,8.0,38,0.00,,,0.00,Wunderground v.1.15,2013-02-03 21:35:00,
2013-02-03 16:45:00,58.6,32.4,29.88,WNW,290,6.0,10.0,37,0.00,,,0.00,Wunderground v.1.15,2013-02-03 21:45:00,
2013-02-03 16:55:00,58.6,31.7,29.88,WNW,292,9.0,13.0,36,0.00,,,0.00,Wunderground v.1.15,2013-02-03 21:55:00,
2013-02-03 17:05:00,58.6,33.0,29.89,WNW,302,5.0,8.0,38,0.00,,,0.00,Wunderground v.1.15,2013-02-03 22:05:00,
2013-02-03 17:15:00,58.2,32.7,29.89,WNW,294,7.0,7.0,38,0.00,,,0.00,Wunderground v.1.15,2013-02-03 22:15:00,
2013-02-03 17:25:00,58.0,32.5,29.89,WNW,296,5.0,6.0,38,0.00,,,0.00,Wunderground v.1.15,2013-02-03 22:25:00,
2013-02-03 17:30:00,57.8,32.3,29.89,WNW,291,6.0,6.0,38,0.00,,,0.00,Wunderground v.1.15,2013-02-03 22:30:00,
2013-02-03 17:40:00,57.4,32.6,29.90,WNW,284,3.0,3.0,39,0.00,,,0.00,Wunderground v.1.15,2013-02-03 22:40:00,
2013-02-03 17:45:00,57.1,33.0,29.89,WNW,290,2.0,3.0,40,0.00,,,0.00,Wunderground v.1.15,2013-02-03 22:45:00,
2013-02-03 17:55:00,56.7,32.6,29.90,WNW,294,1.0,1.0,40,0.00,,,0.00,Wunderground v.1.15,2013-02-03 22:55:00,
2013-02-03 18:05:00,56.3,32.9,29.90,WNW,301,0.0,3.0,41,0.00,,,0.00,Wunderground v.1.15,2013-02-03 23:05:00,
2013-02-03 18:10:00,56.1,33.3,29.91,West,273,0.0,0.0,42,0.00,,,0.00,Wunderground v.1.15,2013-02-03 23:10:00,
2013-02-03 18:15:00,55.9,33.1,29.91,WNW,285,0.0,0.0,42,0.00,,,0.00,Wunderground v.1.15,2013-02-03 23:15:00,
2013-02-03 18:25:00,55.5,33.3,29.91,West,281,0.0,0.0,43,0.00,,,0.00,Wunderground v.1.15,2013-02-03 23:25:00,
2013-02-03 18:30:00,55.3,33.2,29.91,West,281,0.0,0.0,43,0.00,,,0.00,Wunderground v.1.15,2013-02-03 23:30:00,
2013-02-03 18:40:00,54.8,32.7,29.92,WNW,286,0.0,0.0,43,0.00,,,0.00,Wunderground v.1.15,2013-02-03 23:40:00,
2013-02-03 18:50:00,54.4,33.5,29.92,WNW,286,0.0,0.0,45,0.00,,,0.00,Wunderground v.1.15,2013-02-03 23:50:00,
2013-02-03 18:55:00,54.0,33.1,29.92,WNW,286,0.0,0.0,45,0.00,,,0.00,Wunderground v.1.15,2013-02-03 23:55:00,
2013-02-03 19:04:00,53.2,32.9,29.93,WNW,286,0.0,0.0,46,0.00,,,0.00,Wunderground v.1.15,2013-02-04 00:04:00,
2013-02-03 19:10:00,52.9,33.2,29.93,WNW,286,0.0,0.0,47,0.00,,,0.00,Wunderground v.1.15,2013-02-04 00:10:00,
2013-02-03 19:15:00,52.7,33.0,29.93,WNW,286,0.0,0.0,47,0.00,,,0.00,Wunderground v.1.15,2013-02-04 00:15:00,
2013-02-03 19:25:00,52.4,33.8,29.94,WNW,286,0.0,0.0,49,0.00,,,0.00,Wunderground v.1.15,2013-02-04 00:25:00,
2013-02-03 19:30:00,52.2,34.1,29.94,WNW,286,0.0,0.0,50,0.00,,,0.00,Wunderground v.1.15,2013-02-04 00:30:00,
2013-02-03 19:40:00,51.7,34.1,29.94,WNW,286,0.0,0.0,51,0.00,,,0.00,Wunderground v.1.15,2013-02-04 00:40:00,
2013-02-03 19:50:00,51.2,34.2,29.94,WNW,286,0.0,0.0,52,0.00,,,0.00,Wunderground v.1.15,2013-02-04 00:50:00,
2013-02-03 20:00:00,50.5,33.5,29.95,WNW,286,0.0,0.0,52,0.00,,,0.00,Wunderground v.1.15,2013-02-04 01:00:00,
2013-02-03 20:10:00,50.0,33.5,29.95,WNW,286,0.0,0.0,53,0.00,,,0.00,Wunderground v.1.15,2013-02-04 01:10:00,
2013-02-03 20:20:00,49.5,33.5,29.95,WNW,286,0.0,0.0,54,0.00,,,0.00,Wunderground v.1.15,2013-02-04 01:20:00,
2013-02-03 20:30:00,49.0,33.5,29.95,WNW,286,0.0,0.0,55,0.00,,,0.00,Wunderground v.1.15,2013-02-04 01:30:00,
2013-02-03 20:40:00,48.3,34.2,29.96,WNW,286,0.0,0.0,58,0.00,,,0.00,Wunderground v.1.15,2013-02-04 01:40:00,
2013-02-03 20:45:00,48.0,33.9,29.96,WNW,286,0.0,0.0,58,0.00,,,0.00,Wunderground v.1.15,2013-02-04 01:45:00,
2013-02-03 20:50:00,47.8,33.3,29.96,WNW,286,0.0,0.0,57,0.00,,,0.00,Wunderground v.1.15,2013-02-04 01:50:00,
2013-02-03 21:00:00,47.7,34.1,29.96,WNW,286,0.0,0.0,59,0.00,,,0.00,Wunderground v.1.15,2013-02-04 02:00:00,
2013-02-03 21:10:00,47.4,33.4,29.97,WNW,286,0.0,0.0,58,0.00,,,0.00,Wunderground v.1.15,2013-02-04 02:10:00,
2013-02-03 21:20:00,47.0,33.4,29.97,WNW,286,0.0,0.0,59,0.00,,,0.00,Wunderground v.1.15,2013-02-04 02:20:00,
2013-02-03 21:30:00,46.8,33.6,29.97,WNW,286,0.0,0.0,60,0.00,,,0.00,Wunderground v.1.15,2013-02-04 02:30:00,
2013-02-03 21:40:00,46.0,33.3,29.98,WNW,286,0.0,0.0,61,0.00,,,0.00,Wunderground v.1.15,2013-02-04 02:40:00,
2013-02-03 21:50:00,45.2,32.5,29.98,WNW,286,0.0,0.0,61,0.00,,,0.00,Wunderground v.1.15,2013-02-04 02:50:00,
2013-02-03 22:00:00,45.8,33.9,29.98,WNW,286,0.0,0.0,63,0.00,,,0.00,Wunderground v.1.15,2013-02-04 03:00:00,
2013-02-03 22:05:00,45.7,34.2,29.99,West,272,0.0,0.0,64,0.00,,,0.00,Wunderground v.1.15,2013-02-04 03:05:00,
2013-02-03 22:14:00,45.5,32.4,29.99,West,272,0.0,0.0,60,0.00,,,0.00,Wunderground v.1.15,2013-02-04 03:14:00,
2013-02-03 22:20:00,45.6,32.5,29.99,West,272,0.0,0.0,60,0.00,,,0.00,Wunderground v.1.15,2013-02-04 03:20:00,
2013-02-03 22:25:00,45.7,32.6,29.99,West,273,0.0,0.0,60,0.00,,,0.00,Wunderground v.1.15,2013-02-04 03:25:00,
2013-02-03 22:35:00,45.7,33.0,29.99,West,260,0.0,0.0,61,0.00,,,0.00,Wunderground v.1.15,2013-02-04 03:35:00,
2013-02-03 22:45:00,45.6,32.5,30.00,WNW,291,0.0,0.0,60,0.00,,,0.00,Wunderground v.1.15,2013-02-04 03:45:00,
2013-02-03 22:50:00,45.7,32.6,30.00,West,263,0.0,2.0,60,0.00,,,0.00,Wunderground v.1.15,2013-02-04 03:50:00,
2013-02-03 23:00:00,46.0,32.0,29.99,West,272,0.0,0.0,58,0.00,,,0.00,Wunderground v.1.15,2013-02-04 04:00:00,
2013-02-03 23:10:00,46.2,31.4,30.00,WNW,300,1.0,5.0,56,0.00,,,0.00,Wunderground v.1.15,2013-02-04 04:10:00,
2013-02-03 23:15:00,46.3,31.4,30.00,West,268,2.0,5.0,56,0.00,,,0.00,Wunderground v.1.15,2013-02-04 04:15:00,
2013-02-03 23:25:00,46.2,30.9,30.00,WNW,292,2.0,2.0,55,0.00,,,0.00,Wunderground v.1.15,2013-02-04 04:25:00,
2013-02-03 23:35:00,46.1,30.4,30.00,WNW,302,2.0,3.0,54,0.00,,,0.00,Wunderground v.1.15,2013-02-04 04:35:00,
2013-02-03 23:40:00,46.0,30.3,30.00,WNW,298,2.0,4.0,54,0.00,,,0.00,Wunderground v.1.15,2013-02-04 04:40:00,
2013-02-03 23:50:00,45.8,30.5,30.00,West,281,2.0,3.0,55,0.00,,,0.00,Wunderground v.1.15,2013-02-04 04:50:00,
2013-02-03 23:55:00,45.7,30.4,30.01,WNW,296,2.0,3.0,55,0.00,,,0.00,Wunderground v.1.15,2013-02-04 04:55:00,